M I D A S
Marine Information and Data Acquisition System
Tripno 582 of the Zeeleeuw from 2003-09-03 06:16:07 to 2003-09-03 13:32:51
Back to CruiseResearch ActivitiesStationsMapUnderway DataData graphs

EquipmentUnitsComments
TimeDGPSUTC
LatitudeDGPSDM.mWGS84
LongitudeDGPSDM.mWGS84
SpeedMeteo Stationm/sRelative wind speed
DirectionMeteo StationdegRelative wind direction
TemperatureMeteo Stationdeg CelciusAir temperature
PressureMeteo StationPaAtmospheric pressure
HumidityMeteo Station%Relative humidity
Missing or incorrect values are displayed as -999
Metereological data collected by the RV Zeeleeuw from 2003-09-03 06:16:07 to 2003-09-03 13:32:51
                                                                                    Next 1000 lines
Time Latitude Longitude Speed Direction Temperature Pressure Humidity
2003-09-03 06:16:13 51°13.79 2°55.68 2.4 342 14.6 102940 73
2003-09-03 06:16:19 51°13.8 2°55.67 2.4 351 14.6 102930 73
2003-09-03 06:16:23 51°13.8 2°55.66 2.4 351 14.6 102930 73
2003-09-03 06:16:29 51°13.81 2°55.65 2.3 350 14.6 102940 73
2003-09-03 06:16:33 51°13.82 2°55.65 2.3 353 14.6 102940 73
2003-09-03 06:16:39 51°13.83 2°55.64 2.4 359 14.7 102940 73
2003-09-03 06:16:43 51°13.83 2°55.63 2.7 358 14.7 102940 73
2003-09-03 06:16:49 51°13.85 2°55.62 2.4 358 14.7 102940 73
2003-09-03 06:16:53 51°13.85 2°55.62 2.3 357 14.7 102940 73
2003-09-03 06:16:59 51°13.86 2°55.61 2.4 2 14.7 102940 73
2003-09-03 06:17:03 51°13.87 2°55.6 2.4 1 14.7 102940 73
2003-09-03 06:17:09 51°13.88 2°55.59 2.2 2 14.7 102940 72
2003-09-03 06:17:15 51°13.89 2°55.59 2.1 359 14.7 102940 72
2003-09-03 06:17:19 51°13.9 2°55.58 2.1 11 14.7 102930 72
2003-09-03 06:17:23 51°13.91 2°55.58 2.3 7 14.7 102930 72
2003-09-03 06:17:29 51°13.92 2°55.57 2.1   14.7 102930 72
2003-09-03 06:17:41 51°13.94 2°55.55 2.3 1 14.7 102940 72
2003-09-03 06:17:45 51°13.95 2°55.55 2.4 8 14.7 102940 72
2003-09-03 06:17:51 51°13.96 2°55.54 2.2 9 14.7 102940 72
2003-09-03 06:17:55 51°13.97 2°55.53 2.3 1 14.7 102940 72
2003-09-03 06:18:01 51°13.98 2°55.53 2.5 2 14.7 102940 72
2003-09-03 06:18:05 51°13.99 2°55.52 2.6 4 14.7 102940 72
2003-09-03 06:18:11 51°14 2°55.51 2.5 11 14.7 102940 72
2003-09-03 06:18:15 51°14.01 2°55.51 2.4 11 14.7 102940 72
2003-09-03 06:18:21 51°14.02 2°55.5 2.5 14 14.7 102940 72
2003-09-03 06:18:25 51°14.03 2°55.49 2.2 9 14.7 102940 72
2003-09-03 06:18:31 51°14.04 2°55.49 2.3 10 14.7 102940 72
2003-09-03 06:18:35 51°14.05 2°55.48 2.4 6 14.7 102940 72
2003-09-03 06:18:41 51°14.06 2°55.47 2.3 5 14.7 102930 72
2003-09-03 06:18:45 51°14.07 2°55.47 2.6 2 14.7 102930 72
2003-09-03 06:18:51 51°14.08 2°55.46 2.5 4 14.7 102940 72
2003-09-03 06:18:55 51°14.09 2°55.45 2.3 4 14.7 102940 72
2003-09-03 06:19:01 51°14.1 2°55.44 2.2 5 14.7 102940 72
2003-09-03 06:19:05 51°14.11 2°55.44 2.4 3 14.7 102940 72
2003-09-03 06:19:11 51°14.12 2°55.43 2.3   14.7 102940 72
2003-09-03 06:19:15 51°14.13 2°55.42 2.6 5 14.7 102940 72
2003-09-03 06:19:19 51°14.13 2°55.42 3 9 14.7 102940 72
2003-09-03 06:19:25 51°14.15 2°55.4 2.8 4 14.7 102940 72
2003-09-03 06:19:31 51°14.16 2°55.39 3.1 1 14.7 102940 72
2003-09-03 06:19:35 51°14.17 2°55.39 3.4 360 14.7 102940 72
2003-09-03 06:19:41 51°14.18 2°55.37 3.2 360 14.7 102940 72
2003-09-03 06:19:45 51°14.19 2°55.36 3.8 5 14.7 102940 72
2003-09-03 06:19:51 51°14.21 2°55.35 3.2 5 14.7 102940 72
2003-09-03 06:19:55 51°14.21 2°55.33 3.3 6 14.7 102940 72
2003-09-03 06:20:01 51°14.23 2°55.32 3.5 358 14.7 102940 72
2003-09-03 06:20:05 51°14.24 2°55.3 3.7 359 14.7 102940 72
2003-09-03 06:20:11 51°14.25 2°55.28 3.6 359 14.7 102940 72
2003-09-03 06:20:15 51°14.26 2°55.27 3.8 359 14.7 102940 72
2003-09-03 06:20:21 51°14.27 2°55.25 4.2 359 14.7 102940 72
2003-09-03 06:20:25 51°14.28 2°55.24 3.8 1 14.7 102940 72
2003-09-03 06:20:31 51°14.29 2°55.21 3.5 2 14.7 102940 72
2003-09-03 06:20:35 51°14.3 2°55.2 3.7 359 14.7 102940 72
2003-09-03 06:20:39 51°14.31 2°55.18 3.6 360 14.7 102940 72
2003-09-03 06:20:45 51°14.32 2°55.16 3.6 3 14.7 102940 72
2003-09-03 06:20:51 51°14.33 2°55.14 4 1 14.7 102940 72
2003-09-03 06:20:55 51°14.34 2°55.12 4.2 355 14.7 102940 72
2003-09-03 06:21:01 51°14.35 2°55.1 4.1 359 14.7 102940 72
2003-09-03 06:21:05 51°14.36 2°55.08 4.3 357 14.7 102940 72
2003-09-03 06:21:11 51°14.37 2°55.06 4.2 359 14.7 102940 72
2003-09-03 06:21:15 51°14.38 2°55.04 4.3 1 14.7 102940 72
2003-09-03 06:21:21 51°14.39 2°55.02 4.2 356 14.8 102940 72
2003-09-03 06:21:25 51°14.4 2°55 3.8 5 14.8 102940 72
2003-09-03 06:21:31 51°14.41 2°54.99 4.3 13 14.7 102940 72
2003-09-03 06:21:35 51°14.42 2°54.98 4 18 14.7 102940 72
2003-09-03 06:21:41 51°14.44 2°54.96 4.1 20 14.8 102940 73
2003-09-03 06:21:45 51°14.45 2°54.95 3.7 23 14.8 102940 73
2003-09-03 06:21:51 51°14.47 2°54.94 3.9 22 14.8 102940 73
2003-09-03 06:21:55 51°14.48 2°54.93 3.9 25 14.8 102940 73
2003-09-03 06:22:01 51°14.5 2°54.92 3.8 24 14.8 102940 73
2003-09-03 06:22:05 51°14.51 2°54.91 3.7 24 14.8 102940 73
2003-09-03 06:22:11 51°14.53 2°54.89 4 23 14.8 102940 72
2003-09-03 06:22:15 51°14.54 2°54.88 4.4 16 14.8 102940 72
2003-09-03 06:22:21 51°14.56 2°54.87 5 13 14.8 102940 72
2003-09-03 06:22:25 51°14.57 2°54.86 4.4 19 14.8 102940 72
2003-09-03 06:22:31 51°14.59 2°54.84 4.2 20 14.8 102940 71
2003-09-03 06:22:35 51°14.6 2°54.83 4.7 17 14.8 102940 71
2003-09-03 06:22:41 51°14.62 2°54.82 4.9 20 14.8 102940 72
2003-09-03 06:22:45 51°14.63 2°54.81 4.7 19 14.8 102940 72
2003-09-03 06:22:51 51°14.65 2°54.79 4.1 19 14.8 102940 72
2003-09-03 06:22:55 51°14.66 2°54.78 5 18 14.8 102940 72
2003-09-03 06:23:01 51°14.68 2°54.76 4.4 17 14.8 102950 72
2003-09-03 06:23:05 51°14.69 2°54.75 4.5 14 14.8 102950 72
2003-09-03 06:23:11 51°14.71 2°54.74 4.8 14 14.8 102940 72
2003-09-03 06:23:15 51°14.72 2°54.72 4.7 19 14.8 102940 72
2003-09-03 06:23:21 51°14.74 2°54.71 4.8 19 14.8 102940 72
2003-09-03 06:23:25 51°14.75 2°54.7 4.6 20 14.8 102940 72
2003-09-03 06:23:31 51°14.77 2°54.68 4.8 17 14.8 102940 72
2003-09-03 06:23:35 51°14.78 2°54.67 4.5 20 14.8 102940 72
2003-09-03 06:23:41 51°14.8 2°54.66 4.8 13 14.8 102940 72
2003-09-03 06:23:45 51°14.81 2°54.65 5.1 14 14.8 102940 72
2003-09-03 06:23:51 51°14.83 2°54.63 4.4 15 14.8 102940 72
2003-09-03 06:23:55 51°14.85 2°54.62 4.8 14 14.8 102940 72
2003-09-03 06:24:01 51°14.86 2°54.6 4.2 15 14.8 102940 72
2003-09-03 06:24:05 51°14.88 2°54.59 4.9 14 14.8 102940 72
2003-09-03 06:24:11 51°14.89 2°54.58 5.4 13 14.8 102940 72
2003-09-03 06:24:15 51°14.91 2°54.57 5 16 14.8 102940 72
2003-09-03 06:24:21 51°14.92 2°54.55 4.7 14 14.8 102950 71
2003-09-03 06:24:25 51°14.94 2°54.54 4.7 14 14.8 102950 71
2003-09-03 06:24:31 51°14.96 2°54.52 4.7 15 14.8 102940 72
2003-09-03 06:24:35 51°14.97 2°54.51 5 21 14.8 102940 72
2003-09-03 06:24:41 51°14.99 2°54.5 4.6 21 14.8 102940 72
2003-09-03 06:24:45 51°15 2°54.49 4.8 14 14.8 102940 72
2003-09-03 06:24:51 51°15.02 2°54.47 5 17 14.8 102940 72
2003-09-03 06:24:55 51°15.03 2°54.46 4.8 9 14.8 102940 72
2003-09-03 06:25:01 51°15.05 2°54.44 4.5 11 14.8 102940 72
2003-09-03 06:25:05 51°15.06 2°54.43 4.7 18 14.8 102940 72
2003-09-03 06:25:11 51°15.08 2°54.41 5 14 14.9 102950 73
2003-09-03 06:25:15 51°15.09 2°54.4 4.4 14 14.9 102950 73
2003-09-03 06:25:19 51°15.1 2°54.39 4.7 13 14.9 102940 73
2003-09-03 06:25:25 51°15.12 2°54.38 4.6 11 14.9 102940 73
2003-09-03 06:25:31 51°15.14 2°54.36 4.4 15 14.9 102940 73
2003-09-03 06:25:35 51°15.15 2°54.35 4.6 12 14.9 102940 73
2003-09-03 06:25:41 51°15.17 2°54.33 4.6 11 14.9 102940 72
2003-09-03 06:25:45 51°15.18 2°54.32 5.1 9 14.9 102940 72
2003-09-03 06:25:51 51°15.2 2°54.31 5 14 14.9 102940 72
2003-09-03 06:25:55 51°15.21 2°54.3 5 17 14.9 102940 72
2003-09-03 06:26:01 51°15.23 2°54.28 4.9 17 14.9 102940 72
2003-09-03 06:26:05 51°15.24 2°54.27 4.8 17 14.9 102940 72
2003-09-03 06:26:11 51°15.26 2°54.25 4.8 17 14.9 102940 72
2003-09-03 06:26:15 51°15.28 2°54.24 4.5 18 14.9 102940 72
2003-09-03 06:26:21 51°15.29 2°54.23 4.7 16 14.9 102940 72
2003-09-03 06:26:25 51°15.31 2°54.22 4.7 16 14.9 102940 72
2003-09-03 06:26:31 51°15.33 2°54.2 4.6 16 14.9 102950 72
2003-09-03 06:26:35 51°15.34 2°54.19 4.5 15 14.9 102950 72
2003-09-03 06:26:41 51°15.36 2°54.17 5.2 16 14.9 102950 71
2003-09-03 06:26:45 51°15.37 2°54.16 5 16 14.9 102950 71
2003-09-03 06:26:51 51°15.39 2°54.14 4.9 15 14.9 102950 71
2003-09-03 06:26:55 51°15.41 2°54.13 5 14 14.9 102950 71
2003-09-03 06:27:01 51°15.43 2°54.11 4.6 15 14.9 102940 71
2003-09-03 06:27:05 51°15.44 2°54.1 4.9 11 14.9 102940 71
2003-09-03 06:27:11 51°15.46 2°54.08 4.5 12 14.9 102940 72
2003-09-03 06:27:15 51°15.47 2°54.07 5.1 14 14.9 102940 72
2003-09-03 06:27:21 51°15.49 2°54.05 4.7 14 14.9 102950 72
2003-09-03 06:27:27 51°15.51 2°54.03 4.9 9 14.9 102950 72
2003-09-03 06:27:31 51°15.53 2°54.02 5.1 13 14.9 102950 72
2003-09-03 06:27:35 51°15.54 2°54.01 4.8 13 14.9 102950 72
2003-09-03 06:27:41 51°15.56 2°53.99 5.1 13 15 102950 72
2003-09-03 06:27:45 51°15.57 2°53.98 4.9 14 15 102950 72
2003-09-03 06:27:51 51°15.59 2°53.96 5.3 12 15 102950 72
2003-09-03 06:27:55 51°15.61 2°53.95 5 24 15 102950 72
2003-09-03 06:28:01 51°15.63 2°53.93 5 17 15 102940 72
2003-09-03 06:28:05 51°15.64 2°53.92 5.7 20 15 102940 72
2003-09-03 06:28:11 51°15.66 2°53.9 5.5 21 15 102940 72
2003-09-03 06:28:15 51°15.67 2°53.89 5.3 20 15 102940 72
2003-09-03 06:28:21 51°15.7 2°53.88 5.4 20 15 102940 72
2003-09-03 06:28:25 51°15.71 2°53.87 5.8 20 15 102940 72
2003-09-03 06:28:31 51°15.73 2°53.85 5.7 19 15 102940 72
2003-09-03 06:28:35 51°15.75 2°53.84 5.4 21 15 102940 72
2003-09-03 06:28:41 51°15.77 2°53.83 5 22 15 102950 72
2003-09-03 06:28:45 51°15.78 2°53.82 5.2 20 15 102950 72
2003-09-03 06:28:51 51°15.8 2°53.8 4.9 20 15 102940 72
2003-09-03 06:28:55 51°15.82 2°53.79 5.1 18 15 102940 72
2003-09-03 06:29:01 51°15.84 2°53.78 4.8 20 15 102940 71
2003-09-03 06:29:05 51°15.85 2°53.77 4.9 17 15 102940 71
2003-09-03 06:29:11 51°15.87 2°53.75 5.3 16 15 102940 71
2003-09-03 06:29:15 51°15.89 2°53.74 5.5 18 15 102940 71
2003-09-03 06:29:21 51°15.91 2°53.73 5.3 18 15 102950 71
2003-09-03 06:29:25 51°15.92 2°53.72 5.3 20 15 102950 71
2003-09-03 06:29:31 51°15.95 2°53.7 5.4 21 15 102950 72
2003-09-03 06:29:35 51°15.96 2°53.69 5.5 21 15 102950 72
2003-09-03 06:29:41 51°15.98 2°53.68 5.2 20 15.1 102940 72
2003-09-03 06:29:45 51°16 2°53.66 5.3 17 15.1 102940 72
2003-09-03 06:29:51 51°16.02 2°53.65 5 19 15.1 102950 72
2003-09-03 06:29:55 51°16.03 2°53.64 5.2 19 15.1 102950 72
2003-09-03 06:30:01 51°16.05 2°53.62 4.8 19 15.1 102940 72
2003-09-03 06:30:05 51°16.07 2°53.61 4.5 25 15.1 102940 72
2003-09-03 06:30:11 51°16.09 2°53.6 5.3 21 15.1 102950 72
2003-09-03 06:30:15 51°16.1 2°53.59 5.4 27 15.1 102950 72
2003-09-03 06:30:21 51°16.12 2°53.57 5.4 26 15.1 102950 72
2003-09-03 06:30:25 51°16.14 2°53.56 5 24 15.1 102950 72
2003-09-03 06:30:31 51°16.16 2°53.54 4.8 24 15.1 102950 71
2003-09-03 06:30:35 51°16.17 2°53.53 5.2 20 15.1 102950 71
2003-09-03 06:30:41 51°16.19 2°53.52 5.4 23 15.1 102940 72
2003-09-03 06:30:45 51°16.21 2°53.51 5.6 25 15.1 102940 72
2003-09-03 06:30:51 51°16.23 2°53.49 5.1 19 15.1 102940 72
2003-09-03 06:30:55 51°16.24 2°53.48 5.2 18 15.1 102940 72
2003-09-03 06:31:01 51°16.26 2°53.47 5.8 21 15.2 102940 72
2003-09-03 06:31:05 51°16.28 2°53.46 5.8 25 15.2 102940 72
2003-09-03 06:31:11 51°16.3 2°53.44 5.2 24 15.2 102940 72
2003-09-03 06:31:15 51°16.31 2°53.43 5.3 22 15.2 102940 72
2003-09-03 06:31:21 51°16.33 2°53.41 5.1 18 15.2 102950 72
2003-09-03 06:31:25 51°16.35 2°53.4 5.5 22 15.2 102950 72
2003-09-03 06:31:31 51°16.37 2°53.39 4.5 22 15.2 102940 72
2003-09-03 06:31:35 51°16.38 2°53.38 4.9 22 15.2 102940 72
2003-09-03 06:31:41 51°16.4 2°53.36 5.2 20 15.2 102940 71
2003-09-03 06:31:45 51°16.42 2°53.35 5 22 15.2 102940 71
2003-09-03 06:31:51 51°16.44 2°53.34 4.8 25 15.2 102950 72
2003-09-03 06:31:55 51°16.45 2°53.33 4.8 22 15.2 102950 72
2003-09-03 06:32:01 51°16.47 2°53.31 4.8 17 15.1 102950 71
2003-09-03 06:32:05 51°16.49 2°53.3 5 19 15.1 102950 71
2003-09-03 06:32:11 51°16.51 2°53.28 5.3 19 15.1 102940 70
2003-09-03 06:32:15 51°16.52 2°53.27 5.1 18 15.1 102940 70
2003-09-03 06:32:21 51°16.54 2°53.26 5.3 18 15.1 102940 71
2003-09-03 06:32:33 51°16.58 2°53.22 4.8 25 15.1 102940 71
2003-09-03 06:32:35 51°16.59 2°53.22 5 23 15.2 102940 72
2003-09-03 06:32:43 51°16.62 2°53.2 4.5 23 15.2 102940 72
2003-09-03 06:32:47 51°16.63 2°53.19 5.2 22 15.2 102950 72
2003-09-03 06:32:53 51°16.65 2°53.17 4.8 15 15.2 102950 72
2003-09-03 06:32:57 51°16.67 2°53.16 4.8 18 15.2 102950 71
2003-09-03 06:33:03 51°16.69 2°53.14 5.3 22 15.2 102950 71
2003-09-03 06:33:07 51°16.7 2°53.13 4.9 16 15.2 102940 70
2003-09-03 06:33:11 51°16.71 2°53.12 4.5 21 15.2 102940 70
2003-09-03 06:33:17 51°16.73 2°53.1 4.6 18 15.2 102940 71
2003-09-03 06:33:23 51°16.75 2°53.08 4.7 18 15.2 102940 71
2003-09-03 06:33:27 51°16.77 2°53.07 4.5 18 15.2 102950 72
2003-09-03 06:33:33 51°16.79 2°53.05 4.6 18 15.2 102950 72
2003-09-03 06:33:37 51°16.8 2°53.04 5.4 15 15.3 102940 72
2003-09-03 06:33:43 51°16.82 2°53.02 4.9 18 15.3 102940 72
2003-09-03 06:33:47 51°16.83 2°53.01 4.5 18 15.3 102950 72
2003-09-03 06:33:51 51°16.85 2°53 4.5 21 15.3 102950 72
2003-09-03 06:33:57 51°16.87 2°52.98 4.7 24 15.3 102950 72
2003-09-03 06:34:03 51°16.89 2°52.96 4.5 25 15.3 102950 72
2003-09-03 06:34:07 51°16.9 2°52.95 4.9 18 15.3 102950 72
2003-09-03 06:34:13 51°16.92 2°52.93 4.9 17 15.3 102950 72
2003-09-03 06:34:15 51°16.93 2°52.93 5.1 14 15.3 102950 72
2003-09-03 06:34:23 51°16.95 2°52.9 4.8 13 15.3 102950 72
2003-09-03 06:34:27 51°16.97 2°52.89 4.1 16 15.3 102950 71
2003-09-03 06:34:33 51°16.98 2°52.87 4.4 15 15.3 102950 71
2003-09-03 06:34:37 51°17 2°52.85 4.8 11 15.3 102950 71
2003-09-03 06:34:43 51°17.02 2°52.83 5.1 15 15.3 102950 71
2003-09-03 06:34:47 51°17.03 2°52.81 4.5 12 15.3 102950 71
2003-09-03 06:34:53 51°17.05 2°52.79 4.1 10 15.3 102950 71
2003-09-03 06:34:57 51°17.06 2°52.78 4.3 10 15.3 102960 71
2003-09-03 06:35:03 51°17.08 2°52.76 4.5 10 15.3 102960 71
2003-09-03 06:35:07 51°17.09 2°52.74 4.6 14 15.3 102950 71
2003-09-03 06:35:13 51°17.11 2°52.72 4.3 16 15.3 102950 71
2003-09-03 06:35:17 51°17.12 2°52.7 4.2 16 15.3 102950 71
2003-09-03 06:35:23 51°17.14 2°52.68 4.5 18 15.3 102950 71
2003-09-03 06:35:33 51°17.17 2°52.65 4.8 17 15.3 102950 71
2003-09-03 06:35:35 51°17.18 2°52.64 4.4 19 15.3 102950 71
2003-09-03 06:35:43 51°17.2 2°52.61 4.6 15 15.3 102950 71
2003-09-03 06:35:47 51°17.22 2°52.59 4.7 16 15.3 102950 71
2003-09-03 06:35:53 51°17.23 2°52.57 4.5 12 15.3 102950 71
2003-09-03 06:35:57 51°17.25 2°52.56 4.6 19 15.3 102950 71
2003-09-03 06:36:03 51°17.26 2°52.53 4.7 10 15.3 102950 71
2003-09-03 06:36:07 51°17.28 2°52.52 4.8 9 15.3 102950 70
2003-09-03 06:36:13 51°17.29 2°52.5 4.9 14 15.3 102950 70
2003-09-03 06:36:17 51°17.31 2°52.48 5.2 16 15.3 102950 71
2003-09-03 06:36:23 51°17.32 2°52.46 4.3 18 15.3 102950 71
2003-09-03 06:36:27 51°17.34 2°52.44 4.2 15 15.3 102950 71
2003-09-03 06:36:33 51°17.36 2°52.42 5 16 15.3 102950 71
2003-09-03 06:36:37 51°17.37 2°52.41 5 13 15.4 102950 71
2003-09-03 06:36:43 51°17.39 2°52.38 4.8 7 15.4 102950 71
2003-09-03 06:36:47 51°17.4 2°52.37 4.8 11 15.4 102940 70
2003-09-03 06:36:53 51°17.42 2°52.35 4.6 10 15.4 102940 70
2003-09-03 06:36:57 51°17.43 2°52.33 4.6 13 15.4 102950 70
2003-09-03 06:37:03 51°17.45 2°52.31 4.6 13 15.4 102950 70
2003-09-03 06:37:07 51°17.46 2°52.29 4.6 11 15.4 102950 70
2003-09-03 06:37:13 51°17.48 2°52.27 4.7 14 15.4 102950 70
2003-09-03 06:37:19 51°17.49 2°52.25 4.2 13 15.4 102950 70
2003-09-03 06:37:23 51°17.51 2°52.23 4.5 11 15.4 102950 70
2003-09-03 06:37:27 51°17.52 2°52.22 4.5 10 15.4 102960 70
2003-09-03 06:37:33 51°17.54 2°52.19 4.6 9 15.4 102960 70
2003-09-03 06:37:37 51°17.55 2°52.18 4.2 11 15.4 102950 69
2003-09-03 06:37:43 51°17.57 2°52.16 4.3 15 15.4 102950 69
2003-09-03 06:37:47 51°17.58 2°52.14 4.6 16 15.4 102950 69
2003-09-03 06:37:53 51°17.6 2°52.12 4.4 19 15.4 102950 69
2003-09-03 06:37:57 51°17.61 2°52.1 4.9 10 15.4 102950 69
2003-09-03 06:38:03 51°17.63 2°52.08 4.8 10 15.4 102950 69
2003-09-03 06:38:07 51°17.64 2°52.06 4.8 14 15.4 102950 70
2003-09-03 06:38:13 51°17.66 2°52.04 4.9 11 15.4 102950 70
2003-09-03 06:38:17 51°17.67 2°52.03 4.7 15 15.5 102950 70
2003-09-03 06:38:23 51°17.69 2°52 4.4 16 15.5 102950 70
2003-09-03 06:38:27 51°17.7 2°51.99 4.5 15 15.4 102950 69
2003-09-03 06:38:33 51°17.72 2°51.97 5 15 15.4 102950 69
2003-09-03 06:38:37 51°17.73 2°51.95 4.8 11 15.5 102950 69
2003-09-03 06:38:43 51°17.75 2°51.93 5.1 12 15.5 102950 69
2003-09-03 06:38:47 51°17.76 2°51.91 5 15 15.5 102950 69
2003-09-03 06:38:53 51°17.78 2°51.89 4.5 14 15.5 102950 69
2003-09-03 06:38:57 51°17.8 2°51.88 4.6 10 15.5 102950 69
2003-09-03 06:39:03 51°17.81 2°51.85 4.5 12 15.5 102950 69
2003-09-03 06:39:07 51°17.83 2°51.84 4.7 10 15.5 102950 69
2003-09-03 06:39:13 51°17.84 2°51.82 4.4 11 15.5 102950 69
2003-09-03 06:39:17 51°17.86 2°51.8 4.4 9 15.5 102950 69
2003-09-03 06:39:23 51°17.87 2°51.78 4.6 12 15.5 102950 69
2003-09-03 06:39:27 51°17.89 2°51.76 4.3 9 15.5 102950 69
2003-09-03 06:39:33 51°17.91 2°51.74 4.3 11 15.5 102950 69
2003-09-03 06:39:37 51°17.92 2°51.72 5.2 13 15.5 102950 69
2003-09-03 06:39:43 51°17.94 2°51.7 4.7 10 15.5 102950 69
2003-09-03 06:39:47 51°17.95 2°51.69 5 12 15.6 102950 68
2003-09-03 06:39:53 51°17.97 2°51.66 4.5 16 15.6 102950 68
2003-09-03 06:39:57 51°17.98 2°51.65 4.7 11 15.6 102960 69
2003-09-03 06:40:03 51°18 2°51.63 4.5 6 15.6 102960 69
2003-09-03 06:40:07 51°18.01 2°51.61 4.8 10 15.6 102950 68
2003-09-03 06:40:13 51°18.03 2°51.59 4.4 14 15.6 102950 68
2003-09-03 06:40:17 51°18.04 2°51.57 4.9 7 15.6 102950 68
2003-09-03 06:40:21 51°18.05 2°51.56 4.6 13 15.6 102950 68
2003-09-03 06:40:27 51°18.07 2°51.54 4.7 12 15.6 102960 67
2003-09-03 06:40:33 51°18.09 2°51.51 4.4 11 15.6 102960 67
2003-09-03 06:40:37 51°18.1 2°51.5 4.9 9 15.5 102960 67
2003-09-03 06:40:43 51°18.12 2°51.48 4.2 6 15.5 102960 67
2003-09-03 06:40:47 51°18.13 2°51.46 4.3 5 15.6 102960 67
2003-09-03 06:40:53 51°18.15 2°51.44 5.2 2 15.6 102960 67
2003-09-03 06:40:57 51°18.16 2°51.42 5 359 15.6 102950 67
2003-09-03 06:41:03 51°18.18 2°51.4 5 8 15.6 102950 67
2003-09-03 06:41:07 51°18.2 2°51.39 5.2 10 15.6 102950 67
2003-09-03 06:41:13 51°18.21 2°51.37 5.1 13 15.6 102950 67
2003-09-03 06:41:17 51°18.23 2°51.35 5.2 10 15.6 102950 67
2003-09-03 06:41:23 51°18.25 2°51.33 5.1 10 15.6 102950 67
2003-09-03 06:41:27 51°18.26 2°51.31 4.8 10 15.7 102960 68
2003-09-03 06:41:33 51°18.28 2°51.29 4.7 8 15.7 102960 68
2003-09-03 06:41:35 51°18.28 2°51.28 4 11 15.6 102950 67
2003-09-03 06:41:43 51°18.31 2°51.25 4 10 15.6 102950 67
2003-09-03 06:41:47 51°18.32 2°51.24 5 2 15.7 102950 67
2003-09-03 06:41:53 51°18.34 2°51.22 4.6 1 15.7 102950 67
2003-09-03 06:41:57 51°18.35 2°51.2 5 13 15.6 102950 66
2003-09-03 06:42:03 51°18.37 2°51.18 5 3 15.6 102950 66
2003-09-03 06:42:07 51°18.38 2°51.16 4.5 9 15.7 102960 66
2003-09-03 06:42:13 51°18.4 2°51.14 4.6   15.7 102960 66
2003-09-03 06:42:17 51°18.41 2°51.13 5.1 7 15.7 102950 67
2003-09-03 06:42:23 51°18.43 2°51.1 5.1 8 15.7 102950 67
2003-09-03 06:42:27 51°18.44 2°51.09 4.6 5 15.7 102950 67
2003-09-03 06:42:33 51°18.46 2°51.07 4.6 1 15.7 102950 67
2003-09-03 06:42:37 51°18.47 2°51.05 4.5 2 15.7 102960 67
2003-09-03 06:42:43 51°18.49 2°51.03 4.1 1 15.7 102960 67
2003-09-03 06:42:47 51°18.51 2°51.01 4.2 3 15.7 102950 67
2003-09-03 06:42:53 51°18.52 2°50.99 3.9 2 15.7 102950 67
2003-09-03 06:42:57 51°18.54 2°50.98 4.9 8 15.7 102950 66
2003-09-03 06:43:03 51°18.55 2°50.96 4.1 4 15.7 102950 66
2003-09-03 06:43:07 51°18.57 2°50.94 5.3 15 15.7 102950 66
2003-09-03 06:43:13 51°18.59 2°50.92 5.1 13 15.7 102950 66
2003-09-03 06:43:17 51°18.6 2°50.9 5.1 12 15.7 102960 66
2003-09-03 06:43:23 51°18.62 2°50.88 4.6 14 15.7 102960 66
2003-09-03 06:43:27 51°18.63 2°50.87 5.1 14 15.7 102960 67
2003-09-03 06:43:33 51°18.65 2°50.84 5 11 15.7 102960 67
2003-09-03 06:43:37 51°18.66 2°50.83 4.6 9 15.7 102950 66
2003-09-03 06:43:43 51°18.68 2°50.81 5.1 9 15.7 102950 66
2003-09-03 06:43:47 51°18.69 2°50.79 4.8 11 15.8 102960 66
2003-09-03 06:43:53 51°18.71 2°50.77 4.9 9 15.8 102960 66
2003-09-03 06:43:57 51°18.72 2°50.75 4.5 16 15.7 102960 67
2003-09-03 06:44:03 51°18.74 2°50.73 4.6 12 15.7 102960 67
2003-09-03 06:44:07 51°18.75 2°50.72 5.4 9 15.7 102960 66
2003-09-03 06:44:13 51°18.77 2°50.69 5.1 9 15.7 102960 66
2003-09-03 06:44:15 51°18.78 2°50.69 5.4 12 15.8 102950 67
2003-09-03 06:44:23 51°18.8 2°50.66 5.3 13 15.8 102950 67
2003-09-03 06:44:27 51°18.81 2°50.64 4.6 10 15.8 102960 67
2003-09-03 06:44:31 51°18.82 2°50.63 4.8 8 15.8 102960 67
2003-09-03 06:44:37 51°18.84 2°50.6 4.7 2 15.8 102960 66
2003-09-03 06:44:43 51°18.86 2°50.58 4.4 3 15.8 102960 66
2003-09-03 06:44:47 51°18.87 2°50.57 4.3 1 15.8 102960 66
2003-09-03 06:44:53 51°18.89 2°50.54 4.1 8 15.8 102960 66
2003-09-03 06:44:57 51°18.9 2°50.53 4.3 4 15.8 102960 66
2003-09-03 06:45:03 51°18.92 2°50.51 4.3 4 15.8 102960 66
2003-09-03 06:45:07 51°18.93 2°50.49 4.7 7 15.8 102960 65
2003-09-03 06:45:13 51°18.95 2°50.47 4.4 5 15.8 102960 65
2003-09-03 06:45:17 51°18.96 2°50.45 4.6 6 15.8 102960 65
2003-09-03 06:45:23 51°18.98 2°50.43 4.3 7 15.8 102960 65
2003-09-03 06:45:27 51°19 2°50.42 4 4 15.8 102960 65
2003-09-03 06:45:33 51°19.01 2°50.39 5 3 15.8 102960 65
2003-09-03 06:45:37 51°19.03 2°50.38 4.3 17 15.8 102950 65
2003-09-03 06:45:43 51°19.04 2°50.35 5.1 7 15.8 102950 65
2003-09-03 06:45:47 51°19.06 2°50.34 4.8 2 15.8 102960 65
2003-09-03 06:45:53 51°19.07 2°50.32 4.8 360 15.8 102960 65
2003-09-03 06:45:57 51°19.09 2°50.3 4.3 2 15.8 102960 65
2003-09-03 06:46:03 51°19.1 2°50.28 4.9 6 15.8 102960 65
2003-09-03 06:46:07 51°19.12 2°50.26 4.6 9 15.8 102960 66
2003-09-03 06:46:13 51°19.13 2°50.24 5.1 3 15.8 102960 66
2003-09-03 06:46:17 51°19.15 2°50.23 4.6 359 15.8 102960 66
2003-09-03 06:46:23 51°19.16 2°50.2 4.6 360 15.8 102960 66
2003-09-03 06:46:27 51°19.18 2°50.19 5 3 15.9 102960 66
2003-09-03 06:46:33 51°19.19 2°50.16 4.7 5 15.9 102960 66
2003-09-03 06:46:37 51°19.21 2°50.15 4.7 5 15.9 102960 66
2003-09-03 06:46:43 51°19.22 2°50.13 4.9 360 15.9 102960 66
2003-09-03 06:46:47 51°19.24 2°50.11 4.9 357 15.9 102960 66
2003-09-03 06:46:53 51°19.25 2°50.09 4.8 357 15.9 102960 66
2003-09-03 06:46:57 51°19.27 2°50.07 5.1 6 15.9 102960 66
2003-09-03 06:47:03 51°19.29 2°50.05 4.9 9 15.9 102960 66
2003-09-03 06:47:07 51°19.3 2°50.04 5.3 11 15.9 102960 66
2003-09-03 06:47:13 51°19.32 2°50.01 5.3 10 15.9 102960 66
2003-09-03 06:47:17 51°19.33 2°50 5.2 11 15.9 102960 66
2003-09-03 06:47:23 51°19.35 2°49.98 5.2 13 15.9 102960 66
2003-09-03 06:47:27 51°19.36 2°49.96 5.3 5 15.9 102960 66
2003-09-03 06:47:33 51°19.38 2°49.94 5.6 5 15.9 102960 66
2003-09-03 06:47:37 51°19.39 2°49.92 5.3 8 15.9 102960 65
2003-09-03 06:47:43 51°19.41 2°49.9 5.3 8 15.9 102960 65
2003-09-03 06:47:47 51°19.42 2°49.88 4.7 8 15.9 102960 66
2003-09-03 06:47:53 51°19.44 2°49.86 4.7 5 15.9 102960 66
2003-09-03 06:47:57 51°19.45 2°49.85 5.2 6 15.9 102960 66
2003-09-03 06:48:03 51°19.47 2°49.82 5 6 15.9 102960 66
2003-09-03 06:48:07 51°19.48 2°49.81 4.6 7 15.9 102960 66
2003-09-03 06:48:11 51°19.49 2°49.79 4.5 5 15.9 102960 66
2003-09-03 06:48:17 51°19.51 2°49.77 4.5 7 15.9 102970 66
2003-09-03 06:48:23 51°19.53 2°49.75 5 4 15.9 102970 66
2003-09-03 06:48:27 51°19.54 2°49.73 5.2 6 15.9 102970 65
2003-09-03 06:48:33 51°19.56 2°49.71 5.2 7 15.9 102970 65
2003-09-03 06:48:37 51°19.57 2°49.7 4.9 7 15.9 102960 65
2003-09-03 06:48:43 51°19.59 2°49.68 4.9 9 15.9 102960 65
2003-09-03 06:48:47 51°19.6 2°49.66 4.4 6 15.9 102970 65
2003-09-03 06:48:53 51°19.62 2°49.64 4.5 7 15.9 102970 65
2003-09-03 06:48:57 51°19.63 2°49.63 5 358 15.9 102960 65
2003-09-03 06:49:03 51°19.65 2°49.6 4.8 3 15.9 102960 65
2003-09-03 06:49:07 51°19.67 2°49.59 6 5 15.8 102960 65
2003-09-03 06:49:13 51°19.68 2°49.57 5.5 6 15.8 102960 65
2003-09-03 06:49:17 51°19.7 2°49.55 5.2 4 15.9 102960 66
2003-09-03 06:49:23 51°19.71 2°49.53 5.1 5 15.9 102960 66
2003-09-03 06:49:27 51°19.73 2°49.51 5.1 6 16 102960 66
2003-09-03 06:49:33 51°19.75 2°49.49 5 6 16 102960 66
2003-09-03 06:49:37 51°19.76 2°49.48 4.7 4 16 102960 65
2003-09-03 06:49:43 51°19.78 2°49.46 4.7 2 16 102960 65
2003-09-03 06:49:47 51°19.79 2°49.44 5 1 16 102970 65
2003-09-03 06:49:53 51°19.81 2°49.42 4.7 1 16 102970 65
2003-09-03 06:49:57 51°19.82 2°49.4 3.9 355 16 102960 65
2003-09-03 06:50:03 51°19.84 2°49.38 4.5 353 16 102960 65
2003-09-03 06:50:07 51°19.85 2°49.37 5.6 1 16 102960 65
2003-09-03 06:50:13 51°19.87 2°49.35 5.4 2 16 102960 65
2003-09-03 06:50:17 51°19.88 2°49.33 5.3 8 16 102960 65
2003-09-03 06:50:23 51°19.9 2°49.31 5 4 16 102960 65
2003-09-03 06:50:27 51°19.91 2°49.29 5.3 5 16 102970 65
2003-09-03 06:50:33 51°19.93 2°49.27 5.5 3 16 102970 65
2003-09-03 06:50:37 51°19.94 2°49.26 4.7 4 16 102960 65
2003-09-03 06:50:43 51°19.96 2°49.24 5.2 8 16 102960 65
2003-09-03 06:50:47 51°19.97 2°49.22 4.6 7 16 102970 65
2003-09-03 06:50:51 51°19.99 2°49.21 4.7 4 16 102970 65
2003-09-03 06:50:57 51°20 2°49.18 4.8 5 16 102950 65
2003-09-03 06:51:03 51°20.02 2°49.16 4.6 1 16 102950 65
2003-09-03 06:51:07 51°20.04 2°49.15 4.3 359 16 102960 65
2003-09-03 06:51:13 51°20.05 2°49.13 4.6   16 102960 65
2003-09-03 06:51:17 51°20.07 2°49.11 4.5   16 102970 64
2003-09-03 06:51:23 51°20.08 2°49.09 4.4 1 16 102970 64
2003-09-03 06:51:27 51°20.1 2°49.07 4.8 346 16 102960 64
2003-09-03 06:51:33 51°20.12 2°49.05 5.3 354 16 102960 64
2003-09-03 06:51:37 51°20.13 2°49.04 4.7 351 16 102970 65
2003-09-03 06:51:43 51°20.15 2°49.02 4.5 352 16 102970 65
2003-09-03 06:51:47 51°20.16 2°49 4.6 356 16 102960 65
2003-09-03 06:51:53 51°20.18 2°48.98 4.7 354 16 102960 65
2003-09-03 06:51:57 51°20.19 2°48.96 4.5 359 16 102960 65
2003-09-03 06:52:03 51°20.21 2°48.94 4.7 352 16 102960 65
2003-09-03 06:52:07 51°20.22 2°48.93 4.4 355 16 102960 64
2003-09-03 06:52:13 51°20.24 2°48.9 4.6 1 16 102960 64
2003-09-03 06:52:17 51°20.25 2°48.89 5.3   16 102960 64
2003-09-03 06:52:23 51°20.27 2°48.87 5.1 359 16 102960 64
2003-09-03 06:52:27 51°20.28 2°48.85 4.6 357 16 102960 65
2003-09-03 06:52:33 51°20.3 2°48.83 4.4 353 16 102960 65
2003-09-03 06:52:37 51°20.31 2°48.82 4.7 355 16 102960 65
2003-09-03 06:52:43 51°20.33 2°48.79 4.5 356 16 102960 65
2003-09-03 06:52:47 51°20.34 2°48.78 4.8 350 16.1 102960 65
2003-09-03 06:52:53 51°20.36 2°48.76 4.8 359 16.1 102960 65
2003-09-03 06:52:57 51°20.37 2°48.74 4.7 359 16.1 102960 65
2003-09-03 06:53:03 51°20.39 2°48.72 4.8 353 16.1 102960 65
2003-09-03 06:53:07 51°20.4 2°48.7 4.6 359 16.1 102960 65
2003-09-03 06:53:13 51°20.42 2°48.68 5.2 353 16.1 102960 65
2003-09-03 06:53:17 51°20.44 2°48.67 5.2 357 16.1 102960 66
2003-09-03 06:53:23 51°20.45 2°48.64 5.4 1 16.1 102960 66
2003-09-03 06:53:27 51°20.47 2°48.63 5.4 354 16.1 102960 66
2003-09-03 06:53:33 51°20.48 2°48.61 4.8 352 16.1 102960 66
2003-09-03 06:53:37 51°20.5 2°48.59 5.1 352 16.1 102960 66
2003-09-03 06:53:43 51°20.51 2°48.57 4.9 349 16.1 102960 66
2003-09-03 06:53:47 51°20.53 2°48.55 4.9 353 16.1 102970 66
2003-09-03 06:53:53 51°20.54 2°48.53 4.8 351 16.1 102970 66
2003-09-03 06:53:57 51°20.56 2°48.52 4.6 355 16.1 102970 66
2003-09-03 06:54:03 51°20.57 2°48.49 4.3 352 16.1 102970 66
2003-09-03 06:54:07 51°20.59 2°48.48 4.5 356 16.1 102960 66
2003-09-03 06:54:13 51°20.6 2°48.45 4.8 354 16.1 102960 66
2003-09-03 06:54:17 51°20.62 2°48.44 4.3 351 16.1 102970 66
2003-09-03 06:54:23 51°20.64 2°48.42 4.5 356 16.1 102970 66
2003-09-03 06:54:27 51°20.65 2°48.4 5.3 357 16.2 102970 66
2003-09-03 06:54:33 51°20.67 2°48.38 4.8 355 16.2 102970 66
2003-09-03 06:54:37 51°20.68 2°48.36 4.6 356 16.2 102960 66
2003-09-03 06:54:43 51°20.7 2°48.34 4.6 356 16.2 102960 66
2003-09-03 06:54:47 51°20.71 2°48.33 4.7   16.2 102970 66
2003-09-03 06:54:53 51°20.72 2°48.3 4.1 356 16.2 102970 66
2003-09-03 06:54:57 51°20.74 2°48.29 4.9 354 16.2 102960 67
2003-09-03 06:55:03 51°20.75 2°48.26 4.2 355 16.2 102960 67
2003-09-03 06:55:07 51°20.77 2°48.25 5   16.2 102970 67
2003-09-03 06:55:11 51°20.78 2°48.23 4.8 3 16.2 102970 67
2003-09-03 06:55:17 51°20.8 2°48.21 4.6 9 16.2 102970 67
2003-09-03 06:55:23 51°20.81 2°48.18 5 8 16.2 102970 67
2003-09-03 06:55:27 51°20.82 2°48.17 5 5 16.2 102970 67
2003-09-03 06:55:33 51°20.84 2°48.14 4.6 5 16.2 102970 67
2003-09-03 06:55:37 51°20.85 2°48.13 2.6 7 16.2 102970 66
2003-09-03 06:55:43 51°20.87 2°48.1 4 356 16.2 102970 66
2003-09-03 06:55:47 51°20.88 2°48.09 5.2 2 16.2 102960 66
2003-09-03 06:55:53 51°20.9 2°48.07 5.3 359 16.2 102960 66
2003-09-03 06:55:57 51°20.91 2°48.05 5.1 352 16.2 102970 65
2003-09-03 06:56:03 51°20.93 2°48.03 5.4 352 16.2 102970 65
2003-09-03 06:56:07 51°20.94 2°48.01 5.9 350 16.2 102970 66
2003-09-03 06:56:13 51°20.96 2°47.99 5.5 352 16.2 102970 66
2003-09-03 06:56:17 51°20.97 2°47.97 5.4 350 16.2 102960 67
2003-09-03 06:56:23 51°20.99 2°47.95 5.2 354 16.2 102960 67
2003-09-03 06:56:27 51°21 2°47.93 4.9 353 16.2 102960 67
2003-09-03 06:56:33 51°21.02 2°47.91 5 352 16.2 102960 67
2003-09-03 06:56:37 51°21.03 2°47.89 5 351 16.2 102950 66
2003-09-03 06:56:43 51°21.05 2°47.87 4.8 346 16.2 102950 66
2003-09-03 06:56:47 51°21.06 2°47.85 5.7 351 16.2 102970 66
2003-09-03 06:56:53 51°21.08 2°47.83 5.4 348 16.2 102970 66
2003-09-03 06:56:57 51°21.09 2°47.81 5.6 351 16.2 102960 66
2003-09-03 06:57:03 51°21.1 2°47.79 5.5 351 16.2 102960 66
2003-09-03 06:57:07 51°21.12 2°47.77 5.7 350 16.2 102970 66
2003-09-03 06:57:13 51°21.13 2°47.75 5.7 355 16.2 102970 66
2003-09-03 06:57:17 51°21.15 2°47.73 5.2 356 16.3 102960 66
2003-09-03 06:57:23 51°21.16 2°47.71 4.7 354 16.3 102960 66
2003-09-03 06:57:27 51°21.17 2°47.69 5.1 354 16.2 102960 66
2003-09-03 06:57:33 51°21.19 2°47.67 4.9 353 16.2 102960 66
2003-09-03 06:57:37 51°21.2 2°47.65 4.8 348 16.2 102950 66
2003-09-03 06:57:43 51°21.22 2°47.63 5.1 354 16.2 102950 66
2003-09-03 06:57:47 51°21.23 2°47.61 5.2 347 16.2 102960 66
2003-09-03 06:57:53 51°21.25 2°47.59 5.5 350 16.2 102960 66
2003-09-03 06:57:57 51°21.26 2°47.57 5.7 353 16.2 102960 66
2003-09-03 06:58:03 51°21.28 2°47.54 5.5 359 16.2 102960 66
2003-09-03 06:58:07 51°21.29 2°47.53 5.6 354 16.2 102960 66
2003-09-03 06:58:13 51°21.3 2°47.5 5.2 355 16.2 102960 66
2003-09-03 06:58:17 51°21.31 2°47.49 5.2 356 16.3 102960 66
2003-09-03 06:58:23 51°21.33 2°47.46 5.4   16.3 102960 66
2003-09-03 06:58:27 51°21.34 2°47.45 6.1 2 16.3 102970 66
2003-09-03 06:58:33 51°21.36 2°47.42 6 2 16.3 102970 66
2003-09-03 06:58:37 51°21.37 2°47.41 5.1 360 16.3 102960 66
2003-09-03 06:58:43 51°21.39 2°47.38 4.8 359 16.3 102960 66
2003-09-03 06:58:47 51°21.4 2°47.37 4.9 355 16.3 102970 66
2003-09-03 06:58:53 51°21.42 2°47.34 5.2   16.3 102970 66
2003-09-03 06:58:57 51°21.43 2°47.33 5.5 7 16.3 102960 66
2003-09-03 06:59:03 51°21.44 2°47.3 5.1 3 16.3 102960 66
2003-09-03 06:59:07 51°21.46 2°47.29 4.8 4 16.2 102970 65
2003-09-03 06:59:13 51°21.47 2°47.26 5 2 16.2 102970 65
2003-09-03 06:59:17 51°21.48 2°47.24 5.6 357 16.3 102960 65
2003-09-03 06:59:23 51°21.5 2°47.22 5.4 353 16.3 102960 65
2003-09-03 06:59:27 51°21.51 2°47.2 4.8 351 16.2 102960 65
2003-09-03 06:59:33 51°21.53 2°47.18 5.2 358 16.2 102960 65
2003-09-03 06:59:37 51°21.54 2°47.16 4.9 356 16.2 102970 65
2003-09-03 06:59:43 51°21.56 2°47.14 4.5 1 16.2 102970 65
2003-09-03 06:59:47 51°21.57 2°47.12 4.7 353 16.2 102970 66
2003-09-03 06:59:53 51°21.59 2°47.1 4.3 353 16.2 102970 66
2003-09-03 06:59:59 51°21.61 2°47.08 4.5 355 16.3 102960 65
2003-09-03 07:00:03 51°21.62 2°47.06 4.6 6 16.3 102960 65
2003-09-03 07:00:07 51°21.63 2°47.05 5.1 359 16.3 102970 65
2003-09-03 07:00:11 51°21.64 2°47.03 5.2 353 16.3 102970 65
2003-09-03 07:00:17 51°21.66 2°47.01 5.1 358 16.3 102970 66
2003-09-03 07:00:23 51°21.68 2°46.99 4.8 357 16.3 102970 66
2003-09-03 07:00:27 51°21.69 2°46.98 5 357 16.3 102970 66
2003-09-03 07:00:31 51°21.7 2°46.96 4.3 352 16.3 102970 66
2003-09-03 07:00:37 51°21.72 2°46.94 4.4 2 16.3 102970 66
2003-09-03 07:00:43 51°21.74 2°46.91 4.4 355 16.3 102970 66
2003-09-03 07:00:47 51°21.75 2°46.9 5.3   16.3 102960 65
2003-09-03 07:00:51 51°21.77 2°46.89 5.3 357 16.3 102960 65
2003-09-03 07:00:57 51°21.79 2°46.86 4.6 348 16.3 102970 65
2003-09-03 07:01:03 51°21.8 2°46.84 4.8 353 16.3 102970 65
2003-09-03 07:01:07 51°21.82 2°46.83 4.7 353 16.3 102970 66
2003-09-03 07:01:11 51°21.83 2°46.81 4.7 353 16.3 102970 66
2003-09-03 07:01:17 51°21.85 2°46.79 4.2 350 16.3 102960 66
2003-09-03 07:01:23 51°21.87 2°46.77 5.3 359 16.3 102960 66
2003-09-03 07:01:27 51°21.88 2°46.75 5.7 356 16.3 102960 66
2003-09-03 07:01:33 51°21.9 2°46.73 5 354 16.3 102960 66
2003-09-03 07:01:37 51°21.91 2°46.72 6 2 16.3 102960 66
2003-09-03 07:01:43 51°21.93 2°46.7 5   16.3 102960 66
2003-09-03 07:01:47 51°21.94 2°46.68 4.6 360 16.3 102960 66
2003-09-03 07:01:51 51°21.95 2°46.67 5   16.3 102960 66
2003-09-03 07:01:57 51°21.97 2°46.64 4.8 4 16.3 102970 66
2003-09-03 07:02:03 51°21.99 2°46.62 4.7 2 16.3 102970 66
2003-09-03 07:02:07 51°22 2°46.61 5.1 1 16.3 102960 66
2003-09-03 07:02:11 51°22.02 2°46.59 5 3 16.3 102960 66
2003-09-03 07:02:17 51°22.03 2°46.57 5.2 2 16.3 102960 66
2003-09-03 07:02:23 51°22.05 2°46.55 4.7 1 16.3 102960 66
2003-09-03 07:02:27 51°22.06 2°46.53 4.9 358 16.3 102970 65
2003-09-03 07:02:33 51°22.08 2°46.51 4.3 357 16.3 102970 65
2003-09-03 07:02:37 51°22.09 2°46.49 4.2 356 16.3 102960 65
2003-09-03 07:02:43 51°22.11 2°46.47 4.7 346 16.3 102960 65
2003-09-03 07:02:47 51°22.13 2°46.46 5 349 16.3 102970 65
2003-09-03 07:02:53 51°22.14 2°46.44 5 334 16.3 102970 65
2003-09-03 07:02:57 51°22.16 2°46.42 4.5 6 16.3 102970 65
2003-09-03 07:03:03 51°22.17 2°46.4 4.2 357 16.3 102970 65
2003-09-03 07:03:07 51°22.19 2°46.38 4.3 357 16.3 102960 65
2003-09-03 07:03:11 51°22.2 2°46.37 4.1 355 16.3 102960 65
2003-09-03 07:03:17 51°22.22 2°46.35 3.9 355 16.3 102960 66
2003-09-03 07:03:23 51°22.24 2°46.32 4.8 349 16.3 102960 66
2003-09-03 07:03:27 51°22.25 2°46.31 5.2 352 16.3 102970 66
2003-09-03 07:03:33 51°22.27 2°46.29 4.7 356 16.3 102970 66
2003-09-03 07:03:37 51°22.28 2°46.27 5.1 4 16.3 102970 66
2003-09-03 07:03:43 51°22.3 2°46.25 6 354 16.3 102970 66
2003-09-03 07:03:47 51°22.31 2°46.23 5.8 359 16.4 102960 67
2003-09-03 07:03:53 51°22.33 2°46.21 5.6 360 16.4 102960 67
2003-09-03 07:03:59 51°22.35 2°46.19 5.3 360 16.4 102970 67
2003-09-03 07:04:09 51°22.38 2°46.15 5.1 2 16.4 102960 67
2003-09-03 07:04:13 51°22.39 2°46.13 5.5 356 16.4 102960 67
2003-09-03 07:04:19 51°22.41 2°46.11 5.1 1 16.4 102960 66
2003-09-03 07:04:23 51°22.42 2°46.09 5 1 16.4 102960 66
2003-09-03 07:04:29 51°22.44 2°46.07 5.2 1 16.4 102970 65
2003-09-03 07:04:33 51°22.45 2°46.06 5.2 359 16.4 102970 65
2003-09-03 07:04:39 51°22.47 2°46.03 5.2 358 16.4 102970 65
2003-09-03 07:04:43 51°22.48 2°46.02 5 358 16.4 102970 65
2003-09-03 07:04:47 51°22.49 2°46 5.1 360 16.3 102970 64
2003-09-03 07:04:53 51°22.51 2°45.98 5 357 16.3 102970 64
2003-09-03 07:04:59 51°22.53 2°45.96 4.9 356 16.3 102970 64
2003-09-03 07:05:03 51°22.54 2°45.94 4.3 354 16.3 102970 64
2003-09-03 07:05:09 51°22.56 2°45.92 4.6 357 16.3 102970 64
2003-09-03 07:05:13 51°22.57 2°45.9 4.9 354 16.3 102970 64
2003-09-03 07:05:19 51°22.59 2°45.88 4.6 1 16.3 102960 64
2003-09-03 07:05:23 51°22.6 2°45.86 4.6 357 16.3 102960 64
2003-09-03 07:05:29 51°22.62 2°45.84 4.6 2 16.3 102970 64
2003-09-03 07:05:33 51°22.63 2°45.83 4.4 356 16.3 102970 64
2003-09-03 07:05:39 51°22.65 2°45.8 5.1 5 16.4 102970 65
2003-09-03 07:05:43 51°22.66 2°45.79 5   16.4 102970 65
2003-09-03 07:05:49 51°22.68 2°45.76 5.2 359 16.4 102970 65
2003-09-03 07:05:53 51°22.69 2°45.75 5 339 16.4 102970 65
2003-09-03 07:05:59 51°22.71 2°45.73 5.4 341 16.4 102970 65
2003-09-03 07:06:03 51°22.72 2°45.71 5.4 350 16.4 102970 65
2003-09-03 07:06:09 51°22.74 2°45.69 5 347 16.4 102960 65
2003-09-03 07:06:13 51°22.76 2°45.67 5.2 350 16.4 102960 65
2003-09-03 07:06:19 51°22.77 2°45.65 5.3 350 16.4 102960 65
2003-09-03 07:06:23 51°22.79 2°45.63 4.9 349 16.4 102960 65
2003-09-03 07:06:29 51°22.8 2°45.61 5.3 347 16.4 102960 65
2003-09-03 07:06:35 51°22.82 2°45.59 5.5 343 16.4 102960 65
2003-09-03 07:06:39 51°22.83 2°45.57 5.9 349 16.4 102970 65
2003-09-03 07:06:43 51°22.85 2°45.56 6.1 347 16.4 102970 65
2003-09-03 07:06:49 51°22.86 2°45.53 5.9 344 16.4 102970 65
2003-09-03 07:06:53 51°22.88 2°45.52 5.7 344 16.4 102970 65
2003-09-03 07:06:59 51°22.9 2°45.49 5.5 345 16.4 102960 66
2003-09-03 07:07:03 51°22.91 2°45.48 5.6 339 16.4 102960 66
2003-09-03 07:07:09 51°22.93 2°45.46 5.6 342 16.5 102960 65
2003-09-03 07:07:13 51°22.94 2°45.44 5.2 345 16.5 102960 65
2003-09-03 07:07:19 51°22.96 2°45.42 5.1 344 16.4 102970 65
2003-09-03 07:07:23 51°22.97 2°45.4 5.7 353 16.4 102970 65
2003-09-03 07:07:29 51°22.99 2°45.38 6.3 350 16.4 102970 65
2003-09-03 07:07:35 51°23.01 2°45.36 6.1 339 16.4 102970 65
2003-09-03 07:07:39 51°23.02 2°45.34 5.6 338 16.5 102960 65
2003-09-03 07:07:43 51°23.03 2°45.33 6.1 342 16.5 102960 65
2003-09-03 07:07:49 51°23.05 2°45.31 6.2 337 16.5 102960 66
2003-09-03 07:07:53 51°23.06 2°45.29 7 342 16.5 102960 66
2003-09-03 07:07:59 51°23.08 2°45.27 6.6 344 16.5 102970 66
2003-09-03 07:08:03 51°23.09 2°45.25 6.1 345 16.5 102970 66
2003-09-03 07:08:09 51°23.11 2°45.23 6.3 345 16.5 102960 66
2003-09-03 07:08:15 51°23.13 2°45.21 6.3 346 16.5 102960 66
2003-09-03 07:08:19 51°23.14 2°45.19 6.2 343 16.5 102960 66
2003-09-03 07:08:23 51°23.15 2°45.18 6.1 343 16.5 102960 66
2003-09-03 07:08:29 51°23.17 2°45.15 5.9 347 16.5 102970 66
2003-09-03 07:08:33 51°23.18 2°45.14 6 354 16.5 102970 66
2003-09-03 07:08:39 51°23.2 2°45.12 5.8 347 16.5 102960 67
2003-09-03 07:08:43 51°23.21 2°45.1 6 355 16.5 102960 67
2003-09-03 07:08:47 51°23.22 2°45.09 5.5 349 16.5 102960 66
2003-09-03 07:08:51 51°23.24 2°45.07 6.1 340 16.5 102960 66
2003-09-03 07:08:59 51°23.26 2°45.04 5.8 346 16.5 102960 66
2003-09-03 07:09:03 51°23.27 2°45.03 6 343 16.5 102960 66
2003-09-03 07:09:07 51°23.29 2°45.01 6.1 339 16.5 102970 66
2003-09-03 07:09:11 51°23.3 2°45 6.2 343 16.5 102970 66
2003-09-03 07:09:19 51°23.32 2°44.97 6.2 341 16.5 102970 66
2003-09-03 07:09:23 51°23.34 2°44.95 6.5 348 16.5 102970 66
2003-09-03 07:09:27 51°23.35 2°44.94 5.9 350 16.5 102970 66
2003-09-03 07:09:31 51°23.36 2°44.92 5.9 349 16.5 102970 66
2003-09-03 07:09:39 51°23.39 2°44.89 6.6 350 16.5 102970 66
2003-09-03 07:09:43 51°23.4 2°44.88 5.7 346 16.5 102970 66
2003-09-03 07:09:47 51°23.41 2°44.86 5.7 346 16.6 102970 66
2003-09-03 07:09:53 51°23.43 2°44.84 6.2 351 16.6 102970 66
2003-09-03 07:09:59 51°23.45 2°44.82 5.7 347 16.5 102970 66
2003-09-03 07:10:03 51°23.46 2°44.8 5.5 345 16.5 102970 66
2003-09-03 07:10:09 51°23.48 2°44.78 5.2 350 16.5 102970 66
2003-09-03 07:10:13 51°23.49 2°44.76 5.7 344 16.5 102970 66
2003-09-03 07:10:19 51°23.51 2°44.74 6.4 354 16.5 102970 66
2003-09-03 07:10:23 51°23.52 2°44.73 6.7 351 16.5 102970 66
2003-09-03 07:10:29 51°23.54 2°44.7 6.2 351 16.5 102970 65
2003-09-03 07:10:31 51°23.55 2°44.7 6.2 359 16.5 102970 65
2003-09-03 07:10:39 51°23.57 2°44.67 6.1 357 16.5 102960 66
2003-09-03 07:10:43 51°23.58 2°44.65 5.9 356 16.5 102960 66
2003-09-03 07:10:49 51°23.6 2°44.63 5.8 359 16.5 102970 66
2003-09-03 07:10:53 51°23.61 2°44.61 5.1 354 16.5 102970 66
2003-09-03 07:10:59 51°23.63 2°44.59 5.4 358 16.5 102970 65
2003-09-03 07:11:03 51°23.64 2°44.58 5.7 354 16.5 102970 65
2003-09-03 07:11:09 51°23.66 2°44.55 5.2 356 16.5 102980 65
2003-09-03 07:11:13 51°23.68 2°44.54 5 353 16.5 102980 65
2003-09-03 07:11:19 51°23.69 2°44.52 5 355 16.5 102970 65
2003-09-03 07:11:23 51°23.71 2°44.5 5.3 354 16.5 102970 65
2003-09-03 07:11:29 51°23.72 2°44.48 4.5 356 16.4 102970 65
2003-09-03 07:11:33 51°23.74 2°44.46 4.9 350 16.4 102970 65
2003-09-03 07:11:39 51°23.76 2°44.44 5.6 354 16.4 102960 65
2003-09-03 07:11:43 51°23.77 2°44.42 4.5 356 16.4 102960 65
2003-09-03 07:11:49 51°23.79 2°44.4 5 354 16.4 102970 65
2003-09-03 07:11:51 51°23.79 2°44.39 4.6 354 16.4 102970 65
2003-09-03 07:11:59 51°23.82 2°44.36 4.6 351 16.4 102970 65
2003-09-03 07:12:03 51°23.83 2°44.35 4.9 343 16.4 102970 65
2003-09-03 07:12:09 51°23.85 2°44.33 5.5 345 16.4 102970 66
2003-09-03 07:12:13 51°23.86 2°44.31 5.9 349 16.4 102970 66
2003-09-03 07:12:19 51°23.88 2°44.29 6 344 16.5 102970 66
2003-09-03 07:12:23 51°23.89 2°44.28 5.7 350 16.5 102970 66
2003-09-03 07:12:29 51°23.91 2°44.25 5.4 347 16.5 102980 67
2003-09-03 07:12:31 51°23.92 2°44.24 5.3 352 16.5 102980 67
2003-09-03 07:12:39 51°23.94 2°44.22 4.8 351 16.5 102970 66
2003-09-03 07:12:43 51°23.95 2°44.2 4.7 351 16.5 102970 66
2003-09-03 07:12:49 51°23.97 2°44.18 4.8 349 16.5 102970 65
2003-09-03 07:12:55 51°23.99 2°44.16 4.6 354 16.5 102970 65
2003-09-03 07:12:59 51°24 2°44.14 4.9 347 16.5 102980 65
2003-09-03 07:13:03 51°24.02 2°44.13 4.6 353 16.5 102980 65
2003-09-03 07:13:07 51°24.03 2°44.11 5.2 351 16.4 102970 64
2003-09-03 07:13:11 51°24.04 2°44.1 4.8 358 16.4 102970 64
2003-09-03 07:13:19 51°24.07 2°44.07 4.7 352 16.4 102970 65
2003-09-03 07:13:23 51°24.08 2°44.05 5.1 357 16.4 102970 65
2003-09-03 07:13:29 51°24.1 2°44.03 5.3   16.4 102970 65
2003-09-03 07:13:33 51°24.11 2°44.02 5.3 353 16.4 102970 65
2003-09-03 07:13:39 51°24.13 2°43.99 5.3 353 16.5 102980 65
2003-09-03 07:13:43 51°24.14 2°43.98 5.2 354 16.5 102980 65
2003-09-03 07:13:47 51°24.15 2°43.96 5.2 355 16.5 102970 65
2003-09-03 07:13:51 51°24.16 2°43.95 4.9 355 16.5 102970 65
2003-09-03 07:13:59 51°24.19 2°43.92 5.3 359 16.5 102980 65
2003-09-03 07:14:03 51°24.2 2°43.91 5.1 358 16.5 102980 65
2003-09-03 07:14:09 51°24.22 2°43.88 4.9 353 16.5 102980 65
2003-09-03 07:14:13 51°24.23 2°43.87 4.8 357 16.5 102980 65
2003-09-03 07:14:19 51°24.25 2°43.85 5.5 358 16.4 102970 65
2003-09-03 07:14:23 51°24.26 2°43.83 5 352 16.4 102970 65
2003-09-03 07:14:29 51°24.28 2°43.81 5.7 354 16.5 102980 65
2003-09-03 07:14:35 51°24.3 2°43.79 5.7 343 16.5 102980 65
2003-09-03 07:14:39 51°24.31 2°43.77 5.7 348 16.5 102980 66
2003-09-03 07:14:43 51°24.33 2°43.76 6 341 16.5 102980 66
2003-09-03 07:14:47 51°24.34 2°43.74 6.3 344 16.5 102970 66
2003-09-03 07:14:51 51°24.35 2°43.73 5.4 344 16.5 102970 66
2003-09-03 07:14:59 51°24.37 2°43.7 5.8 345 16.5 102970 66
2003-09-03 07:15:03 51°24.39 2°43.68 5.6 352 16.5 102970 66
2003-09-03 07:15:09 51°24.41 2°43.66 5.8 351 16.5 102970 65
2003-09-03 07:15:13 51°24.42 2°43.64 5.4 347 16.5 102970 65
2003-09-03 07:15:19 51°24.44 2°43.62 5.6 345 16.5 102970 65
2003-09-03 07:15:23 51°24.45 2°43.61 5.4 343 16.5 102970 65
2003-09-03 07:15:29 51°24.47 2°43.58 5.3 349 16.5 102960 65
2003-09-03 07:15:33 51°24.48 2°43.57 5.9 347 16.5 102960 65
2003-09-03 07:15:39 51°24.5 2°43.55 5.7 351 16.5 102970 65
2003-09-03 07:15:43 51°24.51 2°43.53 5 347 16.5 102970 65
2003-09-03 07:15:49 51°24.53 2°43.51 5.2 352 16.5 102970 65
2003-09-03 07:15:51 51°24.54 2°43.5 5.1 353 16.5 102970 65
2003-09-03 07:15:59 51°24.56 2°43.47 4.8 354 16.5 102970 65
2003-09-03 07:16:03 51°24.57 2°43.46 4.8 352 16.5 102970 65
2003-09-03 07:16:09 51°24.59 2°43.43 4.1 344 16.5 102970 65
2003-09-03 07:16:13 51°24.6 2°43.42 3.9 350 16.5 102970 65
2003-09-03 07:16:19 51°24.62 2°43.4 4.5 343 16.5 102980 65
2003-09-03 07:16:23 51°24.63 2°43.38 4.9 345 16.5 102980 65
2003-09-03 07:16:29 51°24.65 2°43.36 4.7 347 16.4 102980 65
2003-09-03 07:16:31 51°24.66 2°43.35 4.4 347 16.4 102980 65
2003-09-03 07:16:39 51°24.68 2°43.32 4.3 349 16.5 102970 66
2003-09-03 07:16:43 51°24.7 2°43.31 4.9 348 16.5 102970 66
2003-09-03 07:16:49 51°24.72 2°43.28 4.7 352 16.5 102970 66
2003-09-03 07:16:55 51°24.73 2°43.26 4.8 356 16.5 102970 66
2003-09-03 07:16:59 51°24.75 2°43.25 4.6 349 16.5 102970 65
2003-09-03 07:17:03 51°24.76 2°43.23 4.4 351 16.5 102970 65
2003-09-03 07:17:07 51°24.77 2°43.22 4.2 354 16.5 102980 66
2003-09-03 07:17:11 51°24.78 2°43.2 4.1 355 16.5 102980 66
2003-09-03 07:17:19 51°24.81 2°43.17 4.3 353 16.5 102980 66
2003-09-03 07:17:23 51°24.82 2°43.16 4.1 354 16.5 102980 66
2003-09-03 07:17:29 51°24.84 2°43.14 3.9 358 16.5 102980 65
2003-09-03 07:17:33 51°24.85 2°43.12 5 357 16.5 102980 65
2003-09-03 07:17:39 51°24.87 2°43.1 4.8 357 16.5 102970 65
2003-09-03 07:17:43 51°24.88 2°43.08 4.7 356 16.5 102970 65
2003-09-03 07:17:47 51°24.9 2°43.07 5 357 16.5 102980 65
2003-09-03 07:17:53 51°24.91 2°43.05 4.7 348 16.5 102980 65
2003-09-03 07:17:59 51°24.93 2°43.02 5.2 354 16.5 102980 65
2003-09-03 07:18:03 51°24.95 2°43.01 5 356 16.5 102980 65
2003-09-03 07:18:07 51°24.96 2°42.99 5.1 357 16.5 102980 65
2003-09-03 07:18:11 51°24.97 2°42.98 5.2 355 16.5 102980 65
2003-09-03 07:18:19 51°25 2°42.95 4.6 352 16.5 102960 66
2003-09-03 07:18:23 51°25.01 2°42.93 6.4 348 16.5 102960 66
2003-09-03 07:18:29 51°25.03 2°42.91 7.1 342 16.5 102970 66
2003-09-03 07:18:31 51°25.03 2°42.9 6.4 345 16.5 102970 66
2003-09-03 07:18:39 51°25.06 2°42.87 7.2 349 16.5 102980 66
2003-09-03 07:18:43 51°25.07 2°42.86 7.1 353 16.5 102980 66
2003-09-03 07:18:49 51°25.09 2°42.84 6.6 349 16.5 102980 66
2003-09-03 07:18:55 51°25.11 2°42.81 6.3 348 16.5 102980 66
2003-09-03 07:18:59 51°25.12 2°42.8 6.2 355 16.5 102970 66
2003-09-03 07:19:03 51°25.13 2°42.78 5.9 356 16.5 102970 66
2003-09-03 07:19:09 51°25.15 2°42.76 6.1 355 16.5 102960 66
2003-09-03 07:19:13 51°25.16 2°42.75 6 3 16.5 102960 66
2003-09-03 07:19:19 51°25.18 2°42.72 6.1 2 16.5 102970 65
2003-09-03 07:19:23 51°25.19 2°42.71 5.1 357 16.5 102970 65
2003-09-03 07:19:29 51°25.21 2°42.69 4.7 357 16.5 102970 65
2003-09-03 07:19:33 51°25.23 2°42.67 6 3 16.5 102970 65
2003-09-03 07:19:39 51°25.24 2°42.65 5.4 355 16.5 102980 65
2003-09-03 07:19:43 51°25.26 2°42.63 6.1 355 16.5 102980 65
2003-09-03 07:19:49 51°25.27 2°42.61 6.1 348 16.5 102970 65
2003-09-03 07:19:55 51°25.29 2°42.59 5 358 16.5 102970 65
2003-09-03 07:19:59 51°25.31 2°42.58 5.1 354 16.5 102980 65
2003-09-03 07:20:03 51°25.32 2°42.56 5.4 352 16.5 102980 65
2003-09-03 07:20:07 51°25.33 2°42.55 5.5 342 16.5 102980 65
2003-09-03 07:20:11 51°25.34 2°42.53 6 356 16.5 102980 65
2003-09-03 07:20:19 51°25.37 2°42.5 6.2 340 16.5 102980 65
2003-09-03 07:20:23 51°25.38 2°42.49 6.5 348 16.5 102980 65
2003-09-03 07:20:29 51°25.4 2°42.46 6.9 344 16.6 102980 66
2003-09-03 07:20:33 51°25.41 2°42.45 6 347 16.6 102980 66
2003-09-03 07:20:39 51°25.43 2°42.43 6.8 347 16.6 102980 67
2003-09-03 07:20:43 51°25.44 2°42.41 6.7 348 16.6 102980 67
2003-09-03 07:20:47 51°25.46 2°42.4 6.6 342 16.6 102960 67
2003-09-03 07:20:51 51°25.47 2°42.38 7 345 16.6 102960 67
2003-09-03 07:20:59 51°25.49 2°42.35 6.9 354 16.7 102960 67
2003-09-03 07:21:03 51°25.51 2°42.34 7.8 347 16.7 102960 67
2003-09-03 07:21:09 51°25.53 2°42.31 7.5 343 16.7 102970 67
2003-09-03 07:21:13 51°25.54 2°42.3 7.6 343 16.7 102970 67
2003-09-03 07:21:19 51°25.56 2°42.28 7.3 350 16.7 102970 67
2003-09-03 07:21:23 51°25.57 2°42.26 7.3 352 16.7 102970 67
2003-09-03 07:21:29 51°25.59 2°42.24 6.5 358 16.7 102980 67
2003-09-03 07:21:35 51°25.61 2°42.22 6.3 356 16.7 102980 67
2003-09-03 07:21:39 51°25.62 2°42.2 5.8 344 16.7 102960 66
2003-09-03 07:21:43 51°25.63 2°42.19 6.1 345 16.7 102960 66
2003-09-03 07:21:49 51°25.65 2°42.16 5.2 348 16.6 102970 65
2003-09-03 07:21:55 51°25.67 2°42.14 5.6 347 16.6 102970 65
2003-09-03 07:21:59 51°25.68 2°42.13 5.9 355 16.6 102980 64
2003-09-03 07:22:03 51°25.69 2°42.11 7 346 16.6 102980 64
2003-09-03 07:22:09 51°25.71 2°42.09 6.9 348 16.6 102980 64
2003-09-03 07:22:11 51°25.72 2°42.08 8.1 351 16.6 102980 64
2003-09-03 07:22:19 51°25.75 2°42.05 8.2 350 16.6 102980 64
2003-09-03 07:22:23 51°25.76 2°42.04 8.3 349 16.6 102980 64
2003-09-03 07:22:29 51°25.78 2°42.01 8.2 349 16.7 102970 65
2003-09-03 07:22:33 51°25.79 2°42 8 349 16.7 102970 65
2003-09-03 07:22:39 51°25.81 2°41.97 7.3 347 16.7 102970 65
2003-09-03 07:22:43 51°25.82 2°41.96 6.7 343 16.7 102970 65
2003-09-03 07:22:49 51°25.84 2°41.94 7.4 348 16.6 102960 64
2003-09-03 07:22:53 51°25.85 2°41.92 6.8 337 16.6 102960 64
2003-09-03 07:22:59 51°25.87 2°41.9 6.5 340 16.6 102960 63
2003-09-03 07:23:03 51°25.88 2°41.88 6.2 344 16.6 102960 63
2003-09-03 07:23:09 51°25.9 2°41.86 6 340 16.6 102960 63
2003-09-03 07:23:11 51°25.91 2°41.85 6.6 340 16.6 102960 63
2003-09-03 07:23:19 51°25.93 2°41.82 6.9 344 16.7 102960 63
2003-09-03 07:23:23 51°25.95 2°41.81 6.5 345 16.7 102960 63
2003-09-03 07:23:27 51°25.96 2°41.79 6.7 348 16.7 102970 63
2003-09-03 07:23:33 51°25.98 2°41.77 5.7 348 16.7 102970 63
2003-09-03 07:23:39 51°26 2°41.75 5.6 349 16.7 102970 63
2003-09-03 07:23:43 51°26.01 2°41.73 6.3 345 16.7 102970 63
2003-09-03 07:23:49 51°26.03 2°41.71 6.2 345 16.7 102970 63
2003-09-03 07:23:53 51°26.04 2°41.7 5.2 340 16.7 102970 63
2003-09-03 07:23:59 51°26.06 2°41.67 5.4 341 16.7 102970 63
2003-09-03 07:24:03 51°26.07 2°41.66 5.1 341 16.7 102970 63
2003-09-03 07:24:09 51°26.09 2°41.63 5.5 344 16.7 102980 63
2003-09-03 07:24:13 51°26.1 2°41.62 5.7 353 16.7 102980 63
2003-09-03 07:24:19 51°26.12 2°41.6 5.7 345 16.7 102970 63
2003-09-03 07:24:23 51°26.13 2°41.58 6.5 351 16.7 102970 63
2003-09-03 07:24:29 51°26.15 2°41.56 6.6 351 16.7 102970 63
2003-09-03 07:24:33 51°26.17 2°41.54 6.6 352 16.7 102970 63
2003-09-03 07:24:39 51°26.18 2°41.52 6.7 355 16.7 102970 63
2003-09-03 07:24:43 51°26.2 2°41.51 6.1 354 16.7 102970 63
2003-09-03 07:24:47 51°26.21 2°41.49 6.2 353 16.8 102980 63
2003-09-03 07:24:51 51°26.22 2°41.47 5.3 352 16.8 102980 63
2003-09-03 07:24:59 51°26.25 2°41.44 5.2 350 16.8 102970 63
2003-09-03 07:25:03 51°26.26 2°41.43 5.2 356 16.8 102970 63
2003-09-03 07:25:09 51°26.28 2°41.41 5.6 347 16.8 102970 63
2003-09-03 07:25:13 51°26.29 2°41.39 5.8 353 16.8 102970 63
2003-09-03 07:25:19 51°26.31 2°41.37 5.8 352 16.8 102980 63
2003-09-03 07:25:23 51°26.32 2°41.35 6.5 3 16.8 102980 63
2003-09-03 07:25:27 51°26.33 2°41.34 6.9 6 16.8 102980 63
2003-09-03 07:25:31 51°26.35 2°41.32 6.2 360 16.8 102980 63
2003-09-03 07:25:39 51°26.37 2°41.29 6.4 3 16.8 102980 64
2003-09-03 07:25:43 51°26.38 2°41.28 6.5 5 16.8 102980 64
2003-09-03 07:25:47 51°26.4 2°41.26 6.8 7 16.8 102970 63
2003-09-03 07:25:51 51°26.41 2°41.25 7.7 3 16.8 102970 63
2003-09-03 07:25:59 51°26.43 2°41.22 7.5 360 16.8 102970 63
2003-09-03 07:26:03 51°26.45 2°41.2 7.8 358 16.8 102970 63
2003-09-03 07:26:09 51°26.47 2°41.18 7.3 357 16.8 102970 63
2003-09-03 07:26:15 51°26.48 2°41.16 5.4 345 16.8 102970 63
2003-09-03 07:26:19 51°26.5 2°41.14 6.4 349 16.8 102980 63
2003-09-03 07:26:23 51°26.51 2°41.13 6.3 353 16.8 102980 63
2003-09-03 07:26:29 51°26.53 2°41.1 7.2 1 16.8 102980 63
2003-09-03 07:26:33 51°26.54 2°41.09 7.2 19 16.8 102980 63
2003-09-03 07:26:39 51°26.56 2°41.07 8.6 19 16.8 102970 63
2003-09-03 07:26:43 51°26.57 2°41.05 9 23 16.8 102970 63
2003-09-03 07:26:49 51°26.59 2°41.03 7.6 23 16.8 102970 63
2003-09-03 07:26:53 51°26.6 2°41.02 8.5 21 16.8 102970 63
2003-09-03 07:26:59 51°26.62 2°40.99 10 22 16.8 102970 64
2003-09-03 07:27:03 51°26.64 2°40.98 8.7 22 16.8 102970 64
2003-09-03 07:27:09 51°26.65 2°40.96 9.4 20 16.8 102970 64
2003-09-03 07:27:13 51°26.67 2°40.94 9.8 22 16.8 102970 64
2003-09-03 07:27:19 51°26.69 2°40.92 10.7 24 16.8 102980 64
2003-09-03 07:27:23 51°26.7 2°40.91 10.2 22 16.8 102980 64
2003-09-03 07:27:29 51°26.72 2°40.88 10.3 22 16.8 102960 64
2003-09-03 07:27:33 51°26.73 2°40.87 11.4 16 16.8 102960 64
2003-09-03 07:27:39 51°26.75 2°40.85 11.5 23 16.8 102970 64
2003-09-03 07:27:43 51°26.76 2°40.83 10.9 27 16.8 102970 64
2003-09-03 07:27:49 51°26.78 2°40.81 11.3 27 16.8 102960 63
2003-09-03 07:27:55 51°26.8 2°40.79 10.6 27 16.8 102960 63
2003-09-03 07:27:59 51°26.81 2°40.77 10.4 28 16.8 102960 63
2003-09-03 07:28:03 51°26.82 2°40.76 10.1 29 16.8 102960 63
2003-09-03 07:28:09 51°26.84 2°40.74 10 28 16.8 102960 62
2003-09-03 07:28:11 51°26.85 2°40.73 10 32 16.8 102960 62
2003-09-03 07:28:19 51°26.87 2°40.7 10.4 35 16.8 102950 62
2003-09-03 07:28:23 51°26.89 2°40.69 10 30 16.8 102950 62
2003-09-03 07:28:29 51°26.9 2°40.67 9.6 31 16.8 102960 61
2003-09-03 07:28:31 51°26.91 2°40.66 9.7 34 16.8 102960 61
2003-09-03 07:28:39 51°26.94 2°40.63 9.5 32 16.8 102970 62
2003-09-03 07:28:43 51°26.95 2°40.62 9.2 32 16.8 102970 62
2003-09-03 07:28:49 51°26.97 2°40.59 9.5 33 16.8 102960 62
2003-09-03 07:28:55 51°26.99 2°40.57 8.8 33 16.8 102960 62
2003-09-03 07:28:59 51°27 2°40.56 8.6 42 16.8 102970 62
2003-09-03 07:29:03 51°27.01 2°40.55 7.4 45 16.8 102970 62
2003-09-03 07:29:09 51°27.02 2°40.52 6.6 48 16.8 102970 62
2003-09-03 07:29:13 51°27.03 2°40.51 6.8 51 16.8 102970 62
2003-09-03 07:29:19 51°27.03 2°40.49 6.1 51 16.8 102970 62
2003-09-03 07:29:23 51°27.04 2°40.48 5.1 66 16.8 102970 62
2003-09-03 07:29:29 51°27.04 2°40.46 4.5 79 16.8 102970 62
2003-09-03 07:29:35 51°27.05 2°40.44 4.1 68 16.8 102970 62
2003-09-03 07:29:39 51°27.05 2°40.42 4 62 16.8 102980 62
2003-09-03 07:29:43 51°27.05 2°40.41 3.7 69 16.8 102980 62
2003-09-03 07:29:49 51°27.05 2°40.4 3.4 79 16.8 102980 61
2003-09-03 07:29:55 51°27.05 2°40.38 3.3 79 16.8 102980 61
2003-09-03 07:29:59 51°27.05 2°40.37 3.5 86 16.8 102980 62
2003-09-03 07:30:03 51°27.05 2°40.36 3 84 16.8 102980 62
2003-09-03 07:30:09 51°27.05 2°40.35 3.1 98 16.9 102980 62
2003-09-03 07:30:13 51°27.05 2°40.34 3.5 94 16.9 102980 62
2003-09-03 07:30:19 51°27.05 2°40.33 2.6 105 16.9 102980 62
2003-09-03 07:30:23 51°27.04 2°40.32 2.9 110 16.9 102980 62
2003-09-03 07:30:29 51°27.04 2°40.31 2.2 114 16.9 102990 63
2003-09-03 07:30:31 51°27.04 2°40.3 3.1 107 16.9 102990 63
2003-09-03 07:30:39 51°27.04 2°40.29 3.5 104 16.9 102990 63
2003-09-03 07:30:43 51°27.04 2°40.28 3.2 99 16.9 102990 63
2003-09-03 07:30:49 51°27.04 2°40.27 3.2 113 16.9 102990 63
2003-09-03 07:30:53 51°27.04 2°40.26 2.8 117 16.9 102990 63
2003-09-03 07:30:59 51°27.03 2°40.25 3.1 125 16.9 103000 63
2003-09-03 07:31:03 51°27.03 2°40.24 2.9 125 16.9 103000 63
2003-09-03 07:31:09 51°27.03 2°40.23 3.1 114 16.9 102980 63
2003-09-03 07:31:13 51°27.03 2°40.22 2.9 124 16.9 102980 63
2003-09-03 07:31:19 51°27.03 2°40.21 3.3 112 16.9 102990 62
2003-09-03 07:31:23 51°27.02 2°40.21 3.1 111 16.9 102990 62
2003-09-03 07:31:29 51°27.02 2°40.2 2.8 113 16.9 102990 61
2003-09-03 07:31:33 51°27.02 2°40.19 2.5 119 16.9 102990 61
2003-09-03 07:31:39 51°27.02 2°40.18 2.4 120 16.9 102980 62
2003-09-03 07:31:43 51°27.01 2°40.17 2.4 116 16.9 102980 62
2003-09-03 07:31:49 51°27.01 2°40.16 2.2 112 16.9 102990 63
2003-09-03 07:31:51 51°27.01 2°40.16 2.7 109 16.9 102990 63
2003-09-03 07:31:59 51°27.01 2°40.14 2.6 110 16.9 102990 62
2003-09-03 07:32:03 51°27 2°40.14 2.9 108 16.9 102990 62
2003-09-03 07:32:09 51°27 2°40.12 2.8 109 16.9 102990 61
2003-09-03 07:32:13 51°27 2°40.12 3 109 16.9 102990 61
2003-09-03 07:32:19 51°27 2°40.11 2.8 106 16.9 102990 61
2003-09-03 07:32:23 51°26.99 2°40.1 3.2 109 16.9 102990 61
2003-09-03 07:32:29 51°26.99 2°40.09 2.4 108 16.9 102990 62
2003-09-03 07:32:33 51°26.99 2°40.08 2.5 108 16.9 102990 62
2003-09-03 07:32:39 51°26.99 2°40.07 3 115 16.9 102990 62
2003-09-03 07:32:43 51°26.98 2°40.06 2.8 116 16.9 102990 62
2003-09-03 07:32:47 51°26.98 2°40.06 2.7 125 16.9 102990 61
2003-09-03 07:32:53 51°26.98 2°40.05 2.4 125 16.9 102990 61
2003-09-03 07:32:59 51°26.98 2°40.04 2.5 124 16.8 102990 61
2003-09-03 07:33:03 51°26.98 2°40.03 2.9 131 16.8 102990 61
2003-09-03 07:33:09 51°26.97 2°40.03 2.9 138 16.9 102990 62
2003-09-03 07:33:15 51°26.97 2°40.02 2.8 148 16.9 102990 62
2003-09-03 07:33:19 51°26.97 2°40.02 2.8 138 16.9 102990 61
2003-09-03 07:33:23 51°26.97 2°40.02 2.9 137 16.9 102990 61
2003-09-03 07:33:29 51°26.97 2°40.02 2.8 143 16.8 102990 61
2003-09-03 07:33:33 51°26.97 2°40.02 2.8 140 16.8 102990 61
2003-09-03 07:33:39 51°26.97 2°40.02 3.1 140 16.8 102990 61
2003-09-03 07:33:43 51°26.97 2°40.02 3.5 139 16.8 102990 61
2003-09-03 07:33:49 51°26.98 2°40.02 2.9 146 16.8 102990 60
2003-09-03 07:33:53 51°26.98 2°40.02 2.9 135 16.8 102990 60
2003-09-03 07:33:59 51°26.98 2°40.02 3.4 147 16.8 103000 60
2003-09-03 07:34:03 51°26.98 2°40.01 3.7 143 16.8 103000 60
2003-09-03 07:34:09 51°26.98 2°40.01 3 147 16.8 103000 60
2003-09-03 07:34:13 51°26.98 2°40.01 3.6 143 16.8 103000 60
2003-09-03 07:34:19 51°26.98 2°40.01 3.9 140 16.8 103000 61
2003-09-03 07:34:23 51°26.98 2°40.01 3.6 142 16.8 103000 61
2003-09-03 07:34:29 51°26.98 2°40.01 3.5 139 16.8 102990 61
2003-09-03 07:34:33 51°26.98 2°40.01 3.4 139 16.8 102990 61
2003-09-03 07:34:39 51°26.98 2°40.01 3.4 135 16.8 103000 62
2003-09-03 07:34:43 51°26.98 2°40.01 3.6 133 16.8 103000 62
2003-09-03 07:34:49 51°26.98 2°40 3.3 136 16.8 103000 61
2003-09-03 07:34:53 51°26.98 2°40 3.7 127 16.8 103000 61
2003-09-03 07:34:59 51°26.98 2°40 3.3 128 16.8 102990 60
2003-09-03 07:35:03 51°26.98 2°40 3.3 127 16.8 102990 60
2003-09-03 07:35:09 51°26.98 2°40 3.4 127 16.8 102990 60
2003-09-03 07:35:13 51°26.98 2°40 3.4 129 16.8 102990 60
2003-09-03 07:35:19 51°26.99 2°40 3.8 129 16.8 103000 61
2003-09-03 07:35:23 51°26.99 2°40 3.6 127 16.8 103000 61
2003-09-03 07:35:29 51°26.99 2°40 3.6 127 16.8 103000 61
2003-09-03 07:35:31 51°26.99 2°39.99 4 122 16.8 103000 61
2003-09-03 07:35:39 51°26.99 2°39.99 3.6 132 16.8 102990 61
2003-09-03 07:35:43 51°26.99 2°39.99 3.8 135 16.8 102990 61
2003-09-03 07:35:49 51°26.99 2°39.99 3.8 226 16.8 103000 60
2003-09-03 07:35:51 51°26.99 2°39.99 3.6 126 16.8 103000 60
2003-09-03 07:35:59 51°26.99 2°39.99 3.4 124 16.8 103000 60
2003-09-03 07:36:03 51°26.99 2°39.99 4.4 129 16.8 103000 60
2003-09-03 07:36:09 51°26.99 2°39.99 4.6 127 16.8 103000 60
2003-09-03 07:36:11 51°27 2°39.99 4.5 126 16.8 103000 60
2003-09-03 07:36:19 51°27 2°39.99 4.4 126 16.8 102990 61
2003-09-03 07:36:23 51°27 2°39.99 4.4 130 16.8 102990 61
2003-09-03 07:36:29 51°27 2°39.98 4.3 134 16.8 103000 61
2003-09-03 07:36:31 51°27 2°39.98 4.1 132 16.8 103000 61
2003-09-03 07:36:39 51°27 2°39.98 3.8 137 16.8 102990 60
2003-09-03 07:36:43 51°27 2°39.98 4 134 16.8 102990 60
2003-09-03 07:36:49 51°27 2°39.98 3.2 143 16.8 103000 60
2003-09-03 07:36:59 51°27 2°39.98 3.9 136 16.8 103000 60
2003-09-03 07:37:05 51°27.01 2°39.98 3.7 134 16.8 103000 60
2003-09-03 07:37:07 51°27.01 2°39.98 3.5 137 16.8 103000 60
2003-09-03 07:37:15 51°27.01 2°39.98 3.6 136 16.8 103000 60
2003-09-03 07:37:19 51°27.01 2°39.98 3.8 136 16.8 103000 60
2003-09-03 07:37:25 51°27.01 2°39.98 3.4 130 16.8 103000 60
2003-09-03 07:37:29 51°27.01 2°39.98 2.9 127 16.8 102990 60
2003-09-03 07:37:35 51°27.01 2°39.98 3.5 111 16.8 102990 60
2003-09-03 07:37:39 51°27.01 2°39.98 3.3 114 16.8 103000 60
2003-09-03 07:37:45 51°27.02 2°39.98 3.2 111 16.8 103000 60
2003-09-03 07:37:49 51°27.02 2°39.98 3.3 110 16.8 103000 60
2003-09-03 07:37:55 51°27.02 2°39.97 3.1 108 16.8 103000 60
2003-09-03 07:37:59 51°27.02 2°39.97 3.1 108 16.8 103000 61
2003-09-03 07:38:05 51°27.02 2°39.97 2.9 110 16.8 103000 61
2003-09-03 07:38:07 51°27.02 2°39.97 3 111 16.8 103000 62
2003-09-03 07:38:15 51°27.02 2°39.97 3.4 108 16.8 103000 62
2003-09-03 07:38:19 51°27.02 2°39.97 3.6 108 16.8 103000 61
2003-09-03 07:38:25 51°27.03 2°39.97 3.3 104 16.8 103000 61
2003-09-03 07:38:27 51°27.03 2°39.97 3.8 108 16.8 103000 60
2003-09-03 07:38:35 51°27.03 2°39.97 3.4 107 16.8 103000 60
2003-09-03 07:38:39 51°27.03 2°39.97 3.2 104 16.8 103000 60
2003-09-03 07:38:45 51°27.03 2°39.97 3.1 98 16.8 103000 60
2003-09-03 07:38:47 51°27.03 2°39.97 3 105 16.8 103000 60
2003-09-03 07:38:55 51°27.03 2°39.97 3.6 105 16.8 103000 60
2003-09-03 07:38:59 51°27.03 2°39.97 3.6 106 16.8 103000 60
2003-09-03 07:39:05 51°27.04 2°39.97 3 108 16.8 103000 60
2003-09-03 07:39:07 51°27.04 2°39.97 2.8 105 16.8 103000 60
2003-09-03 07:39:15 51°27.04 2°39.97 2.7 103 16.8 103000 60
2003-09-03 07:39:19 51°27.04 2°39.97 2.7 100 16.8 103000 60
2003-09-03 07:39:25 51°27.04 2°39.96 2.7 88 16.8 103000 60
2003-09-03 07:39:27 51°27.04 2°39.96 2.6 79 16.8 103000 60
2003-09-03 07:39:35 51°27.05 2°39.95 3.5 74 16.8 103000 60
2003-09-03 07:39:39 51°27.05 2°39.95 3.8 65 16.8 103000 60
2003-09-03 07:39:45 51°27.06 2°39.94 3.9 61 16.8 103000 60
2003-09-03 07:39:47 51°27.06 2°39.94 4 53 16.8 103000 60
2003-09-03 07:39:55 51°27.07 2°39.93 4.1 53 16.8 103000 60